This demonstration page uses our WeatherBlox Daily Observations layout. Learn more.

Left ArrowRight Arrow

Hourly Observations for May 20, 2018

Temp ( °F °C ) Dew Point ( °F °C ) Humidity (%) Winds ( mph kmh ) Pressure ( in mb ) Visibility ( mi km ) Precip ( " mm )
12:15 am 00:15 Cloudy with Nearby Thunderstorms 49 9.5 49 9.5 100 100 NNW 7 11 30.15 1021 4 6.43736 0.04 1.016
12:35 am 00:35 Cloudy with Drizzle 49 9.6 49 9.6 100 100 NNW 8 13 30.15 1021 4 6.43736 0.07 1.778
12:55 am 00:55 Cloudy with Drizzle 49 9.6 49 9.6 100 100 N 5 7 30.15 1021 4 6.43736 0.08 2.032
1:15 am 01:15 Cloudy with Mist and Fog 49 9.7 49 9.7 100 100 N 5 7 30.15 1021 5 8.0467 0 0
1:35 am 01:35 Cloudy 50 9.9 50 9.9 100 100 N 7 11 30.12 1020 10 16.0934 0 0
1:55 am 01:55 Cloudy 50 10 50 10 100 100 N 8 13 30.12 1020 10 16.0934 0 0
2:15 am 02:15 Cloudy 50 10.1 50 10.1 100 100 N 8 13 30.09 1019 10 16.0934 0 0
2:35 am 02:35 Cloudy 50 10.1 50 10.1 100 100 N 6 9 30.09 1019 10 16.0934 0 0
2:55 am 02:55 Cloudy 50 10.2 50 10.2 100 100 N 3 6 30.09 1019 10 16.0934 0 0
3:15 am 03:15 Cloudy 50 10.2 50 10.2 100 100 NNW 6 9 30.09 1019 10 16.0934 0 0
3:35 am 03:35 Cloudy 51 10.3 51 10.3 100 100 N 7 11 30.09 1019 7 11.26538 0 0
3:55 am 03:55 Cloudy with Mist and Fog 50 10.2 50 10.2 100 100 N 7 11 30.09 1019 5 8.0467 0 0
4:15 am 04:15 Cloudy with Mist and Fog 50 10.2 50 10.2 100 100 N 7 11 30.09 1019 4 6.43736 0 0
4:35 am 04:35 Cloudy with Mist and Fog 51 10.3 51 10.3 100 100 N 7 11 30.09 1019 5 8.0467 0 0
4:55 am 04:55 Cloudy 51 10.5 51 10.5 100 100 N 7 11 30.12 1020 7 11.26538 0 0
5:15 am 05:15 Cloudy with Mist and Fog 51 10.5 51 10.5 100 100 N 6 9 30.12 1020 5 8.0467 0 0
5:35 am 05:35 Cloudy with Mist and Fog 51 10.6 51 10.6 100 100 N 7 11 30.12 1020 3 4.82802 0 0
5:55 am 05:55 Cloudy with Mist and Fog 51 10.5 51 10.5 100 100 N 12 19 30.12 1020 3 4.82802 0.01 0.254
6:15 am 06:15 Cloudy with Mist and Fog 51 10.5 51 10.5 100 100 N 10 17 30.12 1020 3 4.82802 0 0
6:35 am 06:35 Cloudy with Mist and Fog 51 10.5 51 10.5 100 100 N 12 19 30.12 1020 3 4.82802 0 0
6:55 am 06:55 Cloudy with Mist and Fog 50 10.2 50 10.2 100 100 N 14 22 30.15 1021 4 6.43736 0 0
7:15 am 07:15 Cloudy with Mist and Fog 50 10.1 50 10.1 100 100 N 12 19 30.15 1021 5 8.0467 0 0
7:35 am 07:35 Cloudy 50 10.2 50 10.2 100 100 N 9 15 30.15 1021 7 11.26538 0 0
7:55 am 07:55 Cloudy 50 10.2 50 10.2 100 100 N 9 15 30.15 1021 10 16.0934 0 0
8:15 am 08:15 Cloudy 50 10.1 50 10.1 100 100 N 13 20 30.15 1021 10 16.0934 0 0
8:35 am 08:35 Cloudy 50 10.2 50 10.2 100 100 N 8 13 30.15 1021 10 16.0934 0 0
8:55 am 08:55 Cloudy with Mist and Fog 50 10.2 50 10.2 100 100 N 9 15 30.15 1021 5 8.0467 0 0
9:15 am 09:15 Cloudy with Mist and Fog 51 10.3 51 10.3 100 100 N 13 20 30.15 1021 3 4.82802 0 0
9:35 am 09:35 Cloudy with Mist and Fog 51 10.6 51 10.6 100 100 N 12 19 30.12 1020 4 6.43736 0 0
9:55 am 09:55 Cloudy with Mist and Fog 52 11 52 11 100 100 N 13 20 30.12 1020 5 8.0467 0 0
10:15 am 10:15 Cloudy with Mist and Fog 53 11.5 53 11.5 100 100 N 13 20 30.12 1020 4 6.43736 0 0
10:35 am 10:35 Cloudy 54 12.1 54 12.1 100 100 N 12 19 30.12 1020 7 11.26538 0 0
10:55 am 10:55 Cloudy 54 12.4 54 12.2 99 99 NNE 12 19 30.12 1020 10 16.0934 0 0
11:15 am 11:15 Cloudy 54 12.4 53 11.9 97 97 N 12 19 30.12 1020 10 16.0934 0 0
11:35 am 11:35 Cloudy 54 12.2 53 11.7 97 97 N 13 20 30.15 1021 10 16.0934 0 0
11:55 am 11:55 Cloudy 54 12.1 53 11.7 97 97 N 12 19 30.15 1021 10 16.0934 0 0
12:15 pm 12:15 Cloudy 54 12.1 53 11.6 97 97 N 13 20 30.15 1021 10 16.0934 0 0
12:35 pm 12:35 Cloudy 54 12.2 53 11.5 96 96 NNE 13 20 30.12 1020 10 16.0934 0 0
12:55 pm 12:55 Cloudy 55 12.8 53 11.7 93 93 N 12 19 30.12 1020 10 16.0934 0 0
1:15 pm 13:15 Cloudy 55 12.8 53 11.9 94 94 N 13 20 30.12 1020 10 16.0934 0 0
1:35 pm 13:35 Cloudy 54 12.3 53 11.5 95 95 N 12 19 30.12 1020 10 16.0934 0 0
1:55 pm 13:55 Cloudy 55 12.5 53 11.6 94 94 N 13 20 30.12 1020 10 16.0934 0 0
2:15 pm 14:15 Cloudy 55 12.5 53 11.5 94 94 N 12 19 30.12 1020 10 16.0934 0 0
2:35 pm 14:35 Cloudy 55 12.8 53 11.6 92 92 NNE 10 17 30.12 1020 10 16.0934 0 0
2:55 pm 14:55 Cloudy 55 12.8 53 11.6 92 92 N 12 19 30.12 1020 10 16.0934 0 0
3:15 pm 15:15 Cloudy 55 12.7 53 11.7 94 94 N 14 22 30.12 1020 10 16.0934 0 0
3:35 pm 15:35 Cloudy 56 13.3 54 12 92 92 NNE 13 20 30.12 1020 10 16.0934 0 0
3:55 pm 15:55 Cloudy 57 13.7 53 11.5 87 87 NNE 12 19 30.12 1020 10 16.0934 0 0
4:15 pm 16:15 Cloudy 55 13 53 11.5 91 91 N 12 19 30.12 1020 10 16.0934 0 0
4:35 pm 16:35 Cloudy 56 13.3 53 11.5 89 89 NNE 9 15 30.12 1020 10 16.0934 0 0
4:55 pm 16:55 Cloudy 56 13.5 53 11.5 88 88 NE 9 15 30.12 1020 10 16.0934 0 0
5:15 pm 17:15 Cloudy 56 13.1 53 11.4 90 90 NE 9 15 30.12 1020 10 16.0934 0 0
5:35 pm 17:35 Cloudy 55 13 53 11.4 90 90 ENE 9 15 30.12 1020 10 16.0934 0 0
5:55 pm 17:55 Cloudy 55 12.7 52 11.3 91 91 NE 9 15 30.12 1020 10 16.0934 0 0
6:15 pm 18:15 Cloudy 55 12.5 52 11.2 92 92 NE 7 11 30.12 1020 10 16.0934 0 0
6:35 pm 18:35 Cloudy 55 12.5 53 11.5 94 94 ENE 6 9 30.12 1020 10 16.0934 0 0
6:55 pm 18:55 Cloudy 55 12.6 53 11.5 93 93 NE 6 9 30.12 1020 10 16.0934 0 0
7:15 pm 19:15 Cloudy 55 12.7 53 11.5 92 92 NNE 6 9 30.12 1020 10 16.0934 0 0
7:35 pm 19:35 Cloudy 55 12.7 52 11.2 91 91 ENE 5 7 30.09 1019 10 16.0934 0 0
7:55 pm 19:55 Cloudy 55 12.7 52 11.2 91 91 NNE 3 6 30.12 1020 10 16.0934 0 0
8:15 pm 20:15 Cloudy 55 12.7 53 11.4 92 92 NNE 3 6 30.12 1020 10 16.0934 0 0
8:35 pm 20:35 Cloudy 55 12.8 53 11.5 92 92 Calm 30.12 1020 10 16.0934 0 0
8:55 pm 20:55 Mostly Cloudy 54 12.4 52 11 91 91 ESE 6 9 30.12 1020 10 16.0934 0 0
9:15 pm 21:15 Clear 53 11.5 52 11 97 97 Calm 30.12 1020 10 16.0934 0 0
9:35 pm 21:35 Clear 53 11.7 52 11.1 96 96 Calm 30.12 1020 10 16.0934 0 0
9:55 pm 21:55 Clear 51 10.6 51 10.4 99 99 Calm 30.12 1020 10 16.0934 0 0
10:15 pm 22:15 Partly Cloudy 51 10.5 51 10.5 100 100 Calm 30.12 1020 10 16.0934 0 0
10:35 pm 22:35 Mostly Cloudy 50 10.1 50 10.1 100 100 Calm 30.15 1021 7 11.26538 0 0
10:55 pm 22:55 Partly Cloudy with Mist and Fog 50 10.1 50 10.1 100 100 Calm 30.15 1021 5 8.0467 0 0
11:15 pm 23:15 Clear with Mist and Fog 48 8.9 48 8.9 100 100 Calm 30.15 1021 3 4.82802 0 0
11:35 pm 23:35 Mostly Cloudy with Fog 48 9 48 9 100 100 Calm 30.15 1021 0.5 0.80467 0 0
11:55 pm 23:55 Clear with Mist and Fog 48 8.9 48 8.9 100 100 Calm 30.15 1021 3 4.82802 0 0

Powered by AerisWeather